Year,Month,Day,Hour,Minute,Value (Times are PST for temperature in C)
2016,05,25,00,00,13.10
2016,05,25,00,01,13.10
2016,05,25,00,02,13.10
2016,05,25,00,03,13.00
2016,05,25,00,04,13.00
2016,05,25,00,05,13.00
2016,05,25,00,06,13.00
2016,05,25,00,07,13.00
2016,05,25,00,08,13.00
2016,05,25,00,09,13.00
2016,05,25,00,10,13.00
2016,05,25,00,11,12.90
2016,05,25,00,12,12.90
2016,05,25,00,13,12.90
2016,05,25,00,14,12.90
2016,05,25,00,15,12.90
2016,05,25,00,16,12.90
2016,05,25,00,17,12.90
2016,05,25,00,18,12.90
2016,05,25,00,19,12.90
2016,05,25,00,20,12.90
2016,05,25,00,21,12.90
2016,05,25,00,22,12.90
2016,05,25,00,23,12.90
2016,05,25,00,24,12.90
2016,05,25,00,25,12.90
2016,05,25,00,26,12.90
2016,05,25,00,27,12.90
2016,05,25,00,28,12.90
2016,05,25,00,29,12.90
2016,05,25,00,30,12.90
2016,05,25,00,31,12.90
2016,05,25,00,32,12.90
2016,05,25,00,33,12.90
2016,05,25,00,34,12.90
2016,05,25,00,35,12.90
2016,05,25,00,36,12.90
2016,05,25,00,37,12.90
2016,05,25,00,38,12.90
2016,05,25,00,39,12.90
2016,05,25,00,40,12.90
2016,05,25,00,41,12.90
2016,05,25,00,42,12.80
2016,05,25,00,43,12.80
2016,05,25,00,44,12.80
2016,05,25,00,45,12.80
2016,05,25,00,46,12.80
2016,05,25,00,47,12.80
2016,05,25,00,48,12.80
2016,05,25,00,49,12.80
2016,05,25,00,50,12.80
2016,05,25,00,51,12.80
2016,05,25,00,52,12.80
2016,05,25,00,53,12.80
2016,05,25,00,54,12.80
2016,05,25,00,55,12.80
2016,05,25,00,56,12.70
2016,05,25,00,57,12.70
2016,05,25,00,58,12.70
2016,05,25,00,59,12.70
2016,05,25,01,00,12.70
2016,05,25,01,01,12.70
2016,05,25,01,02,12.70
2016,05,25,01,03,12.70
2016,05,25,01,04,12.70
2016,05,25,01,05,12.70
2016,05,25,01,06,12.70
2016,05,25,01,07,12.70
2016,05,25,01,08,12.70
2016,05,25,01,09,12.60
2016,05,25,01,10,12.60
2016,05,25,01,11,12.60
2016,05,25,01,12,12.60
2016,05,25,01,13,12.60
2016,05,25,01,14,12.60
2016,05,25,01,15,12.60
2016,05,25,01,16,12.60
2016,05,25,01,17,12.60
2016,05,25,01,18,12.60
2016,05,25,01,19,12.60
2016,05,25,01,20,12.60
2016,05,25,01,21,12.60
2016,05,25,01,22,12.60
2016,05,25,01,23,12.60
2016,05,25,01,24,12.50
2016,05,25,01,25,12.50
2016,05,25,01,26,12.50
2016,05,25,01,27,12.50
2016,05,25,01,28,12.50
2016,05,25,01,29,12.50
2016,05,25,01,30,12.50
2016,05,25,01,31,12.50
2016,05,25,01,32,12.50
2016,05,25,01,33,12.50
2016,05,25,01,34,12.40
2016,05,25,01,35,12.40
2016,05,25,01,36,12.40
2016,05,25,01,37,12.40
2016,05,25,01,38,12.40
2016,05,25,01,39,12.40
2016,05,25,01,40,12.40
2016,05,25,01,41,12.40
2016,05,25,01,42,12.40
2016,05,25,01,43,12.40
2016,05,25,01,44,12.30
2016,05,25,01,45,12.30
2016,05,25,01,46,12.30
2016,05,25,01,47,12.30
2016,05,25,01,48,12.30
2016,05,25,01,49,12.30
2016,05,25,01,50,12.30
2016,05,25,01,51,12.30
2016,05,25,01,52,12.30
2016,05,25,01,53,12.30
2016,05,25,01,54,12.30
2016,05,25,01,55,12.30
2016,05,25,01,56,12.30
2016,05,25,01,57,12.30
2016,05,25,01,58,12.30
2016,05,25,01,59,12.30
2016,05,25,02,00,12.20
2016,05,25,02,01,12.20
2016,05,25,02,02,12.20
2016,05,25,02,03,12.20
2016,05,25,02,04,12.20
2016,05,25,02,05,12.20
2016,05,25,02,06,12.20
2016,05,25,02,07,12.20
2016,05,25,02,08,12.20
2016,05,25,02,09,12.20
2016,05,25,02,10,12.10
2016,05,25,02,11,12.10
2016,05,25,02,12,12.10
2016,05,25,02,13,12.10
2016,05,25,02,14,12.10
2016,05,25,02,15,12.10
2016,05,25,02,16,12.10
2016,05,25,02,17,12.10
2016,05,25,02,18,12.00
2016,05,25,02,19,12.00
2016,05,25,02,20,12.00
2016,05,25,02,21,12.00
2016,05,25,02,22,12.00
2016,05,25,02,23,12.00
2016,05,25,02,24,12.00
2016,05,25,02,25,11.90
2016,05,25,02,26,11.90
2016,05,25,02,27,11.90
2016,05,25,02,28,11.90
2016,05,25,02,29,11.90
2016,05,25,02,30,11.90
2016,05,25,02,31,11.90
2016,05,25,02,32,11.90
2016,05,25,02,33,11.80
2016,05,25,02,34,11.80
2016,05,25,02,35,11.80
2016,05,25,02,36,11.80
2016,05,25,02,37,11.80
2016,05,25,02,38,11.80
2016,05,25,02,39,11.80
2016,05,25,02,40,11.80
2016,05,25,02,41,11.80
2016,05,25,02,42,11.80
2016,05,25,02,43,11.80
2016,05,25,02,44,11.80
2016,05,25,02,45,11.80
2016,05,25,02,46,11.70
2016,05,25,02,47,11.70
2016,05,25,02,48,11.70
2016,05,25,02,49,11.70
2016,05,25,02,50,11.70
2016,05,25,02,51,11.70
2016,05,25,02,52,11.70
2016,05,25,02,53,11.70
2016,05,25,02,54,11.70
2016,05,25,02,55,11.70
2016,05,25,02,56,11.70
2016,05,25,02,57,11.70
2016,05,25,02,58,11.70
2016,05,25,02,59,11.70
2016,05,25,03,00,11.70
2016,05,25,03,01,11.60
2016,05,25,03,02,11.60
2016,05,25,03,03,11.60
2016,05,25,03,04,11.60
2016,05,25,03,05,11.60
2016,05,25,03,06,11.60
2016,05,25,03,07,11.60
2016,05,25,03,08,11.60
2016,05,25,03,09,11.60
2016,05,25,03,10,11.60
2016,05,25,03,11,11.60
2016,05,25,03,12,11.50
2016,05,25,03,13,11.50
2016,05,25,03,14,11.50
2016,05,25,03,15,11.50
2016,05,25,03,16,11.50
2016,05,25,03,17,11.50
2016,05,25,03,18,11.50
2016,05,25,03,19,11.50
2016,05,25,03,20,11.50
2016,05,25,03,21,11.40
2016,05,25,03,22,11.40
2016,05,25,03,23,11.40
2016,05,25,03,24,11.40
2016,05,25,03,25,11.40
2016,05,25,03,26,11.40
2016,05,25,03,27,11.30
2016,05,25,03,28,11.30
2016,05,25,03,29,11.30
2016,05,25,03,30,11.30
2016,05,25,03,31,11.30
2016,05,25,03,32,11.30
2016,05,25,03,33,11.30
2016,05,25,03,34,11.20
2016,05,25,03,35,11.20
2016,05,25,03,36,11.20
2016,05,25,03,37,11.20
2016,05,25,03,38,11.20
2016,05,25,03,39,11.20
2016,05,25,03,40,11.20
2016,05,25,03,41,11.20
2016,05,25,03,42,11.10
2016,05,25,03,43,11.10
2016,05,25,03,44,11.10
2016,05,25,03,45,11.10
2016,05,25,03,46,11.10
2016,05,25,03,47,11.10
2016,05,25,03,48,11.10
2016,05,25,03,49,11.10
2016,05,25,03,50,11.10
2016,05,25,03,51,11.10
2016,05,25,03,52,11.00
2016,05,25,03,53,11.00
2016,05,25,03,54,11.00
2016,05,25,03,55,11.00
2016,05,25,03,56,11.00
2016,05,25,03,57,11.00
2016,05,25,03,58,10.90
2016,05,25,03,59,10.90
2016,05,25,04,00,10.90
2016,05,25,04,01,10.90
2016,05,25,04,02,10.90
2016,05,25,04,03,10.90
2016,05,25,05,04,10.60
2016,05,25,05,05,10.60
2016,05,25,05,06,10.60
2016,05,25,05,07,10.60
2016,05,25,05,08,10.60
2016,05,25,05,09,10.60
2016,05,25,05,10,10.60
2016,05,25,05,11,10.60
2016,05,25,05,12,10.60
2016,05,25,05,13,10.60
2016,05,25,05,14,10.60
2016,05,25,05,15,10.60
2016,05,25,05,16,10.60
2016,05,25,05,17,10.60
2016,05,25,05,18,10.50
2016,05,25,05,19,10.50
2016,05,25,05,20,10.50
2016,05,25,05,21,10.50
2016,05,25,05,22,10.50
2016,05,25,05,23,10.40
2016,05,25,05,24,10.40
2016,05,25,05,25,10.40
2016,05,25,05,26,10.40
2016,05,25,05,27,10.50
2016,05,25,05,28,10.50
2016,05,25,05,29,10.50
2016,05,25,05,30,10.40
2016,05,25,05,31,10.40
2016,05,25,05,32,10.40
2016,05,25,05,33,10.40
2016,05,25,05,34,10.40
2016,05,25,05,35,10.40
2016,05,25,05,36,10.40
2016,05,25,05,37,10.40
2016,05,25,05,38,10.40
2016,05,25,05,39,10.40
2016,05,25,05,40,10.40
2016,05,25,05,41,10.40
2016,05,25,05,42,10.40
2016,05,25,05,43,10.40
2016,05,25,05,44,10.40
2016,05,25,05,45,10.40
2016,05,25,05,46,10.40
2016,05,25,05,47,10.40
2016,05,25,05,48,10.40
2016,05,25,05,49,10.40
2016,05,25,05,50,10.40
2016,05,25,05,51,10.40
2016,05,25,05,52,10.40
2016,05,25,05,53,10.40
2016,05,25,05,54,10.40
2016,05,25,05,55,10.40
2016,05,25,05,56,10.40
2016,05,25,05,57,10.40
2016,05,25,05,58,10.40
2016,05,25,05,59,10.40
2016,05,25,06,00,10.50
2016,05,25,06,01,10.50
2016,05,25,06,02,10.50
2016,05,25,06,03,10.50
2016,05,25,06,04,10.50
2016,05,25,06,05,10.50
2016,05,25,06,06,10.50
2016,05,25,06,07,10.50
2016,05,25,06,08,10.50
2016,05,25,06,09,10.50
2016,05,25,06,10,10.50
2016,05,25,06,11,10.50
2016,05,25,06,12,10.50
2016,05,25,06,13,10.50
2016,05,25,06,14,10.50
2016,05,25,06,15,10.50
2016,05,25,06,16,10.50
2016,05,25,06,17,10.50
2016,05,25,06,18,10.50
2016,05,25,06,19,10.50
2016,05,25,06,20,10.50
2016,05,25,06,21,10.50
2016,05,25,06,22,10.50
2016,05,25,06,23,10.50
2016,05,25,06,24,10.50
2016,05,25,06,25,10.50
2016,05,25,06,26,10.60
2016,05,25,06,27,10.60
2016,05,25,06,28,10.60
2016,05,25,06,29,10.60
2016,05,25,06,30,10.60
2016,05,25,06,31,10.60
2016,05,25,06,32,10.60
2016,05,25,06,33,10.60
2016,05,25,06,34,10.70
2016,05,25,06,35,10.70
2016,05,25,06,36,10.70
2016,05,25,06,37,10.70
2016,05,25,06,38,10.70
2016,05,25,06,39,10.80
2016,05,25,06,40,10.80
2016,05,25,06,41,10.80
2016,05,25,06,42,10.80
2016,05,25,06,43,10.90
2016,05,25,06,44,10.90
2016,05,25,06,45,10.90
2016,05,25,06,46,11.00
2016,05,25,06,47,11.00
2016,05,25,06,48,11.10
2016,05,25,06,49,11.10
2016,05,25,06,50,11.10
2016,05,25,06,51,11.10
2016,05,25,06,52,11.20
2016,05,25,06,53,11.20
2016,05,25,06,54,11.20
2016,05,25,06,55,11.30
2016,05,25,06,56,11.30
2016,05,25,06,57,11.30
2016,05,25,06,58,11.40
2016,05,25,06,59,11.40
2016,05,25,07,00,11.40
2016,05,25,07,01,11.50
2016,05,25,07,02,11.50
2016,05,25,07,03,11.60
2016,05,25,07,04,11.60
2016,05,25,07,05,11.70
2016,05,25,07,06,11.70
2016,05,25,07,07,11.80
2016,05,25,07,08,11.80
2016,05,25,07,09,11.80
2016,05,25,07,10,11.90
2016,05,25,07,11,11.90
2016,05,25,07,12,11.90
2016,05,25,07,13,11.90
2016,05,25,07,14,12.00
2016,05,25,07,15,12.00
2016,05,25,07,16,12.00
2016,05,25,07,17,12.00
2016,05,25,07,18,12.10
2016,05,25,07,19,12.10
2016,05,25,07,20,12.10
2016,05,25,07,21,12.10
2016,05,25,07,22,12.20
2016,05,25,07,23,12.20
2016,05,25,07,24,12.20
2016,05,25,07,25,12.20
2016,05,25,07,26,12.20
2016,05,25,07,27,12.20
2016,05,25,07,28,12.30
2016,05,25,07,29,12.30
2016,05,25,07,30,12.30
2016,05,25,07,31,12.30
2016,05,25,07,32,12.40
2016,05,25,07,33,12.40
2016,05,25,07,34,12.40
2016,05,25,07,35,12.40
2016,05,25,07,36,12.50
2016,05,25,07,37,12.50
2016,05,25,07,38,12.60
2016,05,25,07,39,12.60
2016,05,25,07,40,12.60
2016,05,25,07,41,12.60
2016,05,25,07,42,12.70
2016,05,25,07,43,12.70
2016,05,25,07,44,12.70
2016,05,25,07,45,12.80
2016,05,25,07,46,12.80
2016,05,25,07,47,12.80
2016,05,25,07,48,12.90
2016,05,25,07,49,12.90
2016,05,25,07,50,13.00
2016,05,25,07,51,13.00
2016,05,25,07,52,13.10
2016,05,25,07,53,13.10
2016,05,25,07,54,13.10
2016,05,25,07,55,13.10
2016,05,25,07,56,13.20
2016,05,25,07,57,13.20
2016,05,25,07,58,13.20
2016,05,25,07,59,13.30
2016,05,25,08,00,13.40
2016,05,25,08,01,13.40
2016,05,25,08,02,13.50
2016,05,25,08,03,13.60
2016,05,25,08,04,13.60
2016,05,25,08,05,13.70
2016,05,25,08,06,13.80
2016,05,25,08,07,13.80
2016,05,25,08,08,13.90
2016,05,25,08,09,13.90
2016,05,25,08,10,14.00
2016,05,25,08,11,14.10
2016,05,25,08,12,14.20
2016,05,25,08,13,14.20
2016,05,25,08,14,14.30
2016,05,25,08,15,14.30
2016,05,25,08,16,14.30
2016,05,25,08,17,14.30
2016,05,25,08,18,14.30
2016,05,25,08,19,14.30
2016,05,25,08,20,14.30
2016,05,25,08,21,14.40
2016,05,25,08,22,14.30
2016,05,25,08,23,14.30
2016,05,25,08,24,14.40
2016,05,25,08,25,14.30
2016,05,25,08,26,14.30
2016,05,25,08,27,14.30
2016,05,25,08,28,14.30
2016,05,25,08,29,14.30
2016,05,25,08,30,14.30
2016,05,25,08,31,14.30
2016,05,25,08,32,14.30
2016,05,25,08,33,14.30
2016,05,25,08,34,14.40
2016,05,25,08,35,14.40
2016,05,25,08,36,14.50
2016,05,25,08,37,14.50
2016,05,25,08,38,14.60
2016,05,25,08,39,14.60
2016,05,25,08,40,14.60
2016,05,25,08,41,14.60
2016,05,25,08,42,14.60
2016,05,25,08,43,14.60
2016,05,25,08,44,14.60
2016,05,25,08,45,14.60
2016,05,25,08,46,14.70
2016,05,25,08,47,14.70
2016,05,25,08,48,14.80
2016,05,25,08,49,14.80
2016,05,25,08,50,14.90
2016,05,25,08,51,15.00
2016,05,25,08,52,15.10
2016,05,25,08,53,15.10
2016,05,25,08,54,15.20
2016,05,25,08,55,15.30
2016,05,25,08,56,15.40
2016,05,25,08,57,15.50
2016,05,25,08,58,15.60
2016,05,25,08,59,15.60
2016,05,25,09,00,15.60
2016,05,25,09,01,15.70
2016,05,25,09,02,15.70
2016,05,25,09,03,15.80
2016,05,25,09,04,15.80
2016,05,25,09,05,15.90
2016,05,25,09,06,16.00
2016,05,25,09,07,16.10
2016,05,25,09,08,16.20
2016,05,25,09,09,16.30
2016,05,25,09,10,16.40
2016,05,25,09,11,16.50
2016,05,25,09,12,16.60
2016,05,25,09,13,16.70
2016,05,25,09,14,16.70
2016,05,25,09,15,16.80
2016,05,25,09,16,16.80
2016,05,25,09,17,16.90
2016,05,25,09,18,16.90
2016,05,25,09,19,16.90
2016,05,25,09,20,16.90
2016,05,25,09,21,16.90
2016,05,25,09,22,16.80
2016,05,25,09,23,16.80
2016,05,25,09,24,16.90
2016,05,25,09,25,16.90
2016,05,25,09,26,16.90
2016,05,25,09,27,17.00
2016,05,25,09,28,17.10
2016,05,25,09,29,17.10
2016,05,25,09,30,17.20
2016,05,25,09,31,17.20
2016,05,25,09,32,17.30
2016,05,25,09,33,17.30
2016,05,25,09,34,17.40
2016,05,25,09,35,17.50
2016,05,25,09,36,17.50
2016,05,25,09,37,17.60
2016,05,25,09,38,17.50
2016,05,25,09,39,17.50
2016,05,25,09,40,17.40
2016,05,25,09,41,17.40
2016,05,25,09,42,17.40
2016,05,25,09,43,17.40
2016,05,25,09,44,17.40
2016,05,25,09,45,17.40
2016,05,25,09,46,17.40
2016,05,25,09,47,17.30
2016,05,25,09,48,17.20
2016,05,25,09,49,17.10
2016,05,25,09,50,17.10
2016,05,25,09,51,17.10
2016,05,25,09,52,17.10
2016,05,25,09,53,17.10
2016,05,25,09,54,17.20
2016,05,25,09,55,17.20
2016,05,25,09,56,17.20
2016,05,25,09,57,17.20
2016,05,25,09,58,17.20
2016,05,25,09,59,17.20
2016,05,25,10,00,17.20
2016,05,25,10,01,17.20
2016,05,25,10,02,17.20
2016,05,25,10,03,17.20
2016,05,25,10,04,17.20
2016,05,25,10,05,17.20
2016,05,25,10,06,17.20
2016,05,25,10,07,17.20
2016,05,25,10,08,17.30
2016,05,25,10,09,17.30
2016,05,25,10,10,17.30
2016,05,25,10,11,17.30
2016,05,25,10,12,17.20
2016,05,25,10,13,17.20
2016,05,25,10,14,17.10
2016,05,25,10,15,17.00
2016,05,25,10,16,16.90
2016,05,25,10,17,16.80
2016,05,25,10,18,16.70
2016,05,25,10,19,16.70
2016,05,25,10,20,16.70
2016,05,25,10,21,16.60
2016,05,25,10,22,16.60
2016,05,25,10,23,16.60
2016,05,25,10,24,16.60
2016,05,25,10,25,16.60
2016,05,25,10,26,16.50
2016,05,25,10,27,16.50
2016,05,25,10,28,16.50
2016,05,25,10,29,16.50
2016,05,25,10,30,16.50
2016,05,25,10,31,16.50
2016,05,25,10,32,16.50
2016,05,25,10,33,16.40
2016,05,25,10,34,16.40
2016,05,25,10,35,16.30
2016,05,25,10,36,16.30
2016,05,25,10,37,16.30
2016,05,25,10,38,16.30
2016,05,25,10,39,16.20
2016,05,25,10,40,16.20
2016,05,25,10,41,16.20
2016,05,25,10,42,16.20
2016,05,25,10,43,16.20
2016,05,25,10,44,16.20
2016,05,25,10,45,16.30
2016,05,25,10,46,16.40
2016,05,25,10,47,16.50
2016,05,25,10,48,16.50
2016,05,25,10,49,16.60
2016,05,25,10,50,16.60
2016,05,25,10,51,16.60
2016,05,25,10,52,16.60
2016,05,25,10,53,16.60
2016,05,25,10,54,16.60
2016,05,25,10,55,16.70
2016,05,25,10,56,16.70
2016,05,25,10,57,16.80
2016,05,25,10,58,16.90
2016,05,25,10,59,17.00
2016,05,25,11,00,17.00
2016,05,25,11,01,17.10
2016,05,25,11,02,17.10
2016,05,25,11,03,17.10
2016,05,25,11,04,17.20
2016,05,25,11,05,17.20
2016,05,25,11,06,17.30
2016,05,25,11,07,17.30
2016,05,25,11,08,17.40
2016,05,25,11,09,17.40
2016,05,25,11,10,17.40
2016,05,25,11,11,17.40
2016,05,25,11,12,17.40
2016,05,25,11,13,17.40
2016,05,25,11,14,17.40
2016,05,25,11,15,17.30
2016,05,25,11,16,17.30
2016,05,25,11,17,17.30
2016,05,25,11,18,17.20
2016,05,25,11,19,17.20
2016,05,25,11,20,17.20
2016,05,25,11,21,17.20
2016,05,25,11,22,17.20
2016,05,25,11,23,17.20
2016,05,25,11,24,17.30
2016,05,25,11,25,17.30
2016,05,25,11,26,17.30
2016,05,25,11,27,17.30
2016,05,25,11,28,17.30
2016,05,25,11,29,17.20
2016,05,25,11,30,17.20
2016,05,25,11,31,17.30
2016,05,25,11,32,17.30
2016,05,25,11,33,17.30
2016,05,25,11,34,17.30
2016,05,25,11,35,17.30
2016,05,25,11,36,17.30
2016,05,25,11,37,17.30
2016,05,25,11,38,17.30
2016,05,25,11,39,17.30
2016,05,25,11,40,17.30
2016,05,25,11,41,17.30
2016,05,25,11,42,17.30
2016,05,25,11,43,17.30
2016,05,25,11,44,17.30
2016,05,25,11,45,17.40
2016,05,25,11,46,17.40
2016,05,25,11,47,17.50
2016,05,25,11,48,17.50
2016,05,25,11,49,17.60
2016,05,25,11,50,17.60
2016,05,25,11,51,17.70
2016,05,25,11,52,17.70
2016,05,25,11,53,17.70
2016,05,25,11,54,17.70
2016,05,25,11,55,17.70
2016,05,25,11,56,17.70
2016,05,25,11,57,17.70
2016,05,25,11,58,17.70
2016,05,25,11,59,17.70
2016,05,25,12,00,17.70
2016,05,25,12,01,17.70
2016,05,25,12,02,17.70
2016,05,25,12,03,17.80
2016,05,25,12,04,17.80
2016,05,25,12,05,17.80
2016,05,25,12,06,17.90
2016,05,25,12,07,17.80
2016,05,25,12,08,17.80
2016,05,25,12,09,17.80
2016,05,25,12,10,17.90
2016,05,25,12,11,17.90
2016,05,25,12,12,17.90
2016,05,25,12,13,17.90
2016,05,25,12,14,17.90
2016,05,25,12,15,17.90
2016,05,25,12,16,17.90
2016,05,25,12,17,17.90
2016,05,25,12,18,18.00
2016,05,25,12,19,18.10
2016,05,25,12,20,18.10
2016,05,25,12,21,18.10
2016,05,25,12,22,18.10
2016,05,25,12,23,18.10
2016,05,25,12,24,18.10
2016,05,25,12,25,18.10
2016,05,25,12,26,18.20
2016,05,25,12,27,18.20
2016,05,25,12,28,18.20
2016,05,25,12,29,18.10
2016,05,25,12,30,18.10
2016,05,25,12,31,18.20
2016,05,25,12,32,18.20
2016,05,25,12,33,18.20
2016,05,25,12,34,18.20
2016,05,25,12,35,18.20
2016,05,25,12,36,18.20
2016,05,25,12,37,18.20
2016,05,25,12,38,18.20
2016,05,25,12,39,18.20
2016,05,25,12,40,18.20
2016,05,25,12,41,18.20
2016,05,25,12,42,18.30
2016,05,25,12,43,18.30
2016,05,25,12,44,18.30
2016,05,25,12,45,18.30
2016,05,25,12,46,18.30
2016,05,25,12,47,18.30
2016,05,25,12,48,18.30
2016,05,25,12,49,18.40
2016,05,25,12,50,18.40
2016,05,25,12,51,18.40
2016,05,25,12,52,18.40
2016,05,25,12,53,18.50
2016,05,25,12,54,18.60
2016,05,25,12,55,18.60
2016,05,25,12,56,18.70
2016,05,25,12,57,18.80
2016,05,25,12,58,18.80
2016,05,25,12,59,18.90
2016,05,25,13,00,19.00
2016,05,25,13,01,19.10
2016,05,25,13,02,19.20
2016,05,25,13,03,19.20
2016,05,25,13,04,19.30
2016,05,25,13,05,19.30
2016,05,25,13,06,19.30
2016,05,25,13,07,19.40
2016,05,25,13,08,19.40
2016,05,25,13,09,19.30
2016,05,25,13,10,19.30
2016,05,25,13,11,19.30
2016,05,25,13,12,19.30
2016,05,25,13,13,19.20
2016,05,25,13,14,19.20
2016,05,25,13,15,19.20
2016,05,25,13,16,19.20
2016,05,25,13,17,19.20
2016,05,25,13,18,19.10
2016,05,25,13,19,19.10
2016,05,25,13,20,19.10
2016,05,25,13,21,19.00
2016,05,25,13,22,19.00
2016,05,25,13,23,19.00
2016,05,25,13,24,18.90
2016,05,25,13,25,18.90
2016,05,25,13,26,18.90
2016,05,25,13,27,18.90
2016,05,25,13,28,18.90
2016,05,25,13,29,18.80
2016,05,25,13,30,18.70
2016,05,25,13,31,18.70
2016,05,25,13,32,18.70
2016,05,25,13,33,18.80
2016,05,25,13,34,18.80
2016,05,25,13,35,18.90
2016,05,25,13,36,18.90
2016,05,25,13,37,18.90
2016,05,25,13,38,18.90
2016,05,25,13,39,18.90
2016,05,25,13,40,18.90
2016,05,25,13,41,18.80
2016,05,25,13,42,18.70
2016,05,25,13,43,18.70
2016,05,25,13,44,18.70
2016,05,25,13,45,18.70
2016,05,25,13,46,18.60
2016,05,25,13,47,18.60
2016,05,25,13,48,18.60
2016,05,25,13,49,18.50
2016,05,25,13,50,18.40
2016,05,25,13,51,18.30
2016,05,25,13,52,18.20
2016,05,25,13,53,18.20
2016,05,25,13,54,18.30
2016,05,25,13,55,18.30
2016,05,25,13,56,18.20
2016,05,25,13,57,18.20
2016,05,25,13,58,18.20
2016,05,25,13,59,18.20
2016,05,25,14,00,18.30
2016,05,25,14,01,18.30
2016,05,25,14,02,18.40
2016,05,25,14,03,18.50
2016,05,25,14,04,18.60
2016,05,25,14,05,18.70
2016,05,25,14,06,18.80
2016,05,25,14,07,18.80
2016,05,25,14,08,18.80
2016,05,25,14,09,18.90
2016,05,25,14,10,18.90
2016,05,25,14,11,18.90
2016,05,25,14,12,18.90
2016,05,25,14,13,18.90
2016,05,25,14,14,18.70
2016,05,25,14,15,18.70
2016,05,25,14,16,18.60
2016,05,25,14,17,18.60
2016,05,25,14,18,18.60
2016,05,25,14,19,18.60
2016,05,25,14,20,18.60
2016,05,25,14,21,18.60
2016,05,25,14,22,18.70
2016,05,25,14,23,18.70
2016,05,25,14,24,18.70
2016,05,25,14,25,18.70
2016,05,25,14,26,18.70
2016,05,25,14,27,18.70
2016,05,25,14,28,18.70
2016,05,25,14,29,18.70
2016,05,25,14,30,18.70
2016,05,25,14,31,18.70
2016,05,25,14,32,18.80
2016,05,25,14,33,18.80
2016,05,25,14,34,18.80
2016,05,25,14,35,18.80
2016,05,25,14,36,18.80
2016,05,25,14,37,18.80
2016,05,25,14,38,18.80
2016,05,25,14,39,18.80
2016,05,25,14,40,18.80
2016,05,25,14,41,18.80
2016,05,25,14,42,18.80
2016,05,25,14,43,18.70
2016,05,25,14,44,18.50
2016,05,25,14,45,18.40
2016,05,25,14,46,18.30
2016,05,25,14,47,18.20
2016,05,25,14,48,18.10
2016,05,25,14,49,18.10
2016,05,25,14,50,18.10
2016,05,25,14,51,18.10
2016,05,25,14,52,18.20
2016,05,25,14,53,18.30
2016,05,25,14,54,18.40
2016,05,25,14,55,18.30
2016,05,25,14,56,18.40
2016,05,25,14,57,18.40
2016,05,25,14,58,18.50
2016,05,25,14,59,18.50
2016,05,25,15,00,18.50
2016,05,25,15,01,18.60
2016,05,25,15,02,18.60
2016,05,25,15,03,18.70
2016,05,25,15,04,18.80
2016,05,25,15,05,18.90
2016,05,25,15,06,18.90
2016,05,25,15,07,19.00
2016,05,25,15,08,18.90
2016,05,25,15,09,18.80
2016,05,25,15,10,18.80
2016,05,25,15,11,18.70
2016,05,25,15,12,18.70
2016,05,25,15,13,18.70
2016,05,25,15,14,18.80
2016,05,25,15,15,18.80
2016,05,25,15,16,18.80
2016,05,25,15,17,18.80
2016,05,25,15,18,18.80
2016,05,25,15,19,18.80
2016,05,25,15,20,18.70
2016,05,25,15,21,18.70
2016,05,25,15,22,18.70
2016,05,25,15,23,18.70
2016,05,25,15,24,18.70
2016,05,25,15,25,18.70
2016,05,25,15,26,18.70
2016,05,25,15,27,18.70
2016,05,25,15,28,18.70
2016,05,25,15,29,18.70
2016,05,25,15,30,18.70
2016,05,25,15,31,18.60
2016,05,25,15,32,18.50
2016,05,25,15,33,18.50
2016,05,25,15,34,18.50
2016,05,25,15,35,18.60
2016,05,25,15,36,18.60
2016,05,25,15,37,18.60
2016,05,25,15,38,18.50
2016,05,25,15,39,18.50
2016,05,25,15,40,18.50
2016,05,25,15,41,18.60
2016,05,25,15,42,18.70
2016,05,25,15,43,18.70
2016,05,25,15,44,18.70
2016,05,25,15,45,18.60
2016,05,25,15,46,18.60
2016,05,25,15,47,18.60
2016,05,25,15,48,18.60
2016,05,25,15,49,18.60
2016,05,25,15,50,18.60
2016,05,25,15,51,18.60
2016,05,25,15,52,18.70
2016,05,25,15,53,18.70
2016,05,25,15,54,18.70
2016,05,25,15,55,18.70
2016,05,25,15,56,18.80
2016,05,25,15,57,18.80
2016,05,25,15,58,18.80
2016,05,25,15,59,18.80
2016,05,25,16,00,18.80
2016,05,25,16,01,18.80
2016,05,25,16,02,18.80
2016,05,25,16,03,18.80
2016,05,25,16,04,18.80
2016,05,25,16,05,18.80
2016,05,25,16,06,18.80
2016,05,25,16,07,18.80
2016,05,25,16,08,18.80
2016,05,25,16,09,18.80
2016,05,25,17,04,17.80
2016,05,25,17,05,17.80
2016,05,25,17,06,17.80
2016,05,25,17,07,17.80
2016,05,25,17,08,17.90
2016,05,25,17,09,17.90
2016,05,25,17,10,17.80
2016,05,25,17,11,17.80
2016,05,25,17,12,17.70
2016,05,25,17,13,17.70
2016,05,25,17,14,17.70
2016,05,25,17,15,17.60
2016,05,25,17,16,17.50
2016,05,25,17,17,17.40
2016,05,25,17,18,17.40
2016,05,25,17,19,17.40
2016,05,25,17,20,17.40
2016,05,25,17,21,17.40
2016,05,25,17,22,17.40
2016,05,25,17,23,17.50
2016,05,25,17,24,17.50
2016,05,25,17,25,17.40
2016,05,25,17,26,17.30
2016,05,25,17,27,17.20
2016,05,25,17,28,17.20
2016,05,25,17,29,17.10
2016,05,25,17,30,17.10
2016,05,25,17,31,17.20
2016,05,25,17,32,17.10
2016,05,25,17,33,17.10
2016,05,25,17,34,17.10
2016,05,25,17,35,17.10
2016,05,25,17,36,17.10
2016,05,25,17,37,17.00
2016,05,25,17,38,17.00
2016,05,25,17,39,17.00
2016,05,25,17,40,17.10
2016,05,25,17,41,17.10
2016,05,25,17,42,17.10
2016,05,25,17,43,17.20
2016,05,25,17,44,17.20
2016,05,25,17,45,17.10
2016,05,25,17,46,17.10
2016,05,25,17,47,17.20
2016,05,25,17,48,17.20
2016,05,25,17,49,17.20
2016,05,25,17,50,17.20
2016,05,25,17,51,17.10
2016,05,25,17,52,17.10
2016,05,25,17,53,17.10
2016,05,25,17,54,17.10
2016,05,25,17,55,17.10
2016,05,25,17,56,17.10
2016,05,25,17,57,17.10
2016,05,25,17,58,17.10
2016,05,25,17,59,17.10
2016,05,25,18,00,17.10
2016,05,25,18,01,17.20
2016,05,25,18,02,17.20
2016,05,25,18,03,17.20
2016,05,25,18,04,17.20
2016,05,25,18,05,17.20
2016,05,25,18,06,17.30
2016,05,25,18,07,17.30
2016,05,25,18,08,17.20
2016,05,25,18,09,17.10
2016,05,25,18,10,17.00
2016,05,25,18,11,16.90
2016,05,25,18,12,16.90
2016,05,25,18,13,16.90
2016,05,25,18,14,16.90
2016,05,25,18,15,17.00
2016,05,25,18,16,17.10
2016,05,25,18,17,17.10
2016,05,25,18,18,17.00
2016,05,25,18,19,17.00
2016,05,25,18,20,16.90
2016,05,25,18,21,16.90
2016,05,25,18,22,16.80
2016,05,25,18,23,16.70
2016,05,25,18,24,16.60
2016,05,25,18,25,16.60
2016,05,25,18,26,16.60
2016,05,25,18,27,16.50
2016,05,25,18,28,16.40
2016,05,25,18,29,16.40
2016,05,25,18,30,16.40
2016,05,25,18,31,16.40
2016,05,25,18,32,16.40
2016,05,25,18,33,16.40
2016,05,25,18,34,16.40
2016,05,25,18,35,16.40
2016,05,25,18,36,16.50
2016,05,25,18,37,16.50
2016,05,25,18,38,16.40
2016,05,25,18,39,16.40
2016,05,25,18,40,16.30
2016,05,25,18,41,16.30
2016,05,25,18,42,16.30
2016,05,25,18,43,16.30
2016,05,25,18,44,16.20
2016,05,25,18,45,16.20
2016,05,25,18,46,16.20
2016,05,25,18,47,16.30
2016,05,25,18,48,16.30
2016,05,25,18,49,16.30
2016,05,25,18,50,16.30
2016,05,25,18,51,16.20
2016,05,25,18,52,16.20
2016,05,25,18,53,16.20
2016,05,25,18,54,16.20
2016,05,25,18,55,16.10
2016,05,25,18,56,16.10
2016,05,25,18,57,16.10
2016,05,25,18,58,16.10
2016,05,25,18,59,16.10
2016,05,25,19,00,16.00
2016,05,25,19,01,16.00
2016,05,25,19,02,16.00
2016,05,25,19,03,16.00
2016,05,25,19,04,16.10
2016,05,25,19,05,16.10
2016,05,25,19,06,16.20
2016,05,25,19,07,16.10
2016,05,25,19,08,16.10
2016,05,25,19,09,16.10
2016,05,25,19,10,16.00
2016,05,25,19,11,16.00
2016,05,25,19,12,15.90
2016,05,25,19,13,15.80